This demonstration page uses our WeatherBlox Daily Observations layout. Learn more.

Left ArrowRight Arrow

39.08367, -84.50855

Hourly Observations for December 9, 2017

Temp ( °F °C ) Dew Point ( °F °C ) Humidity (%) Winds ( mph kmh ) Pressure ( in mb ) Visibility ( mi km ) Precip ( " mm )
12:53 am 00:53 Clear 19 -7.2 14 -10 81 81 E 3 6 29.99 1016 10 16 N/A
1:53 am 01:53 Clear 19 -7.2 14 -10 81 81 N N/A 29.97 1015 10 16 N/A
2:53 am 02:53 Clear 18 -7.8 14 -10 84 84 N N/A 29.96 1015 10 16 N/A
3:53 am 03:53 Clear 20 -6.7 14 -10 78 78 WSW 3 6 29.96 1015 10 16 N/A
4:53 am 04:53 Clear 21 -6.1 14 -10 74 74 N N/A 29.92 1013 10 16 N/A
5:53 am 05:53 Clear 19 -7.2 13 -10.6 77 77 N N/A 29.89 1012 10 16 N/A
6:53 am 06:53 Mostly Cloudy 20 -6.7 14 -10 78 78 N N/A 29.91 1013 10 16 N/A
7:53 am 07:53 Mostly Cloudy 22 -5.6 16 -8.9 78 78 S 6 9 29.89 1012 10 16 N/A
8:53 am 08:53 Cloudy 23 -5 17 -8.3 78 78 SSW 9 15 29.88 1012 10 16 N/A
9:53 am 09:53 Cloudy 26 -3.3 18 -7.8 71 71 S 6 9 29.85 1011 10 16 N/A
10:53 am 10:53 Cloudy 28 -2.2 18 -7.8 66 66 SSW 10 17 29.84 1011 10 16 N/A
11:53 am 11:53 Cloudy 29 -1.7 19 -7.2 66 66 SSW 9 15 29.83 1010 10 16 N/A
12:31 pm 12:31 Cloudy with Light Snow 29 -1.7 21 -6.1 72 72 SW 9 15 29.83 1010 2 3 N/A
12:53 pm 12:53 Cloudy with Light Snow 28 -2.2 22 -5.6 78 78 SW 9 15 29.82 1010 2 2 N/A
1:02 pm 13:02 Cloudy with Light Snow 28 -2.2 23 -5 81 81 SSW 7 11 29.85 1011 4 6 N/A
1:34 pm 13:34 Cloudy with Light Snow 29 -1.7 23 -5 78 78 WSW 8 13 29.83 1010 4 6 N/A
1:53 pm 13:53 Cloudy with Light Snow 29 -1.7 23 -5 78 78 WSW 8 13 29.83 1010 6 10 N/A
2:53 pm 14:53 Cloudy with Light Snow 29 -1.7 24 -4.4 82 82 WSW 9 15 29.85 1011 4 6 N/A
3:23 pm 15:23 Cloudy with Light Snow 29 -1.7 24 -4.4 82 82 WSW 10 17 29.88 1012 2 3 N/A
3:39 pm 15:39 Cloudy with Light Snow 29 -1.7 25 -3.9 85 85 WSW 7 11 29.91 1013 1 2 N/A
3:53 pm 15:53 Cloudy with Light Snow 29 -1.7 25 -3.9 85 85 SW 8 13 29.87 1012 3 4 N/A
4:09 pm 16:09 Cloudy with Light Snow 29 -1.7 25 -3.9 85 85 WSW 8 13 29.94 1014 5 8 N/A
4:44 pm 16:44 Cloudy with Light Snow 29 -1.7 26 -3.3 89 89 WSW 9 15 29.94 1014 2 3 N/A
4:53 pm 16:53 Cloudy with Light Snow 29 -1.7 26 -3.3 89 89 SW 8 13 29.91 1013 2 3 N/A
5:16 pm 17:16 Cloudy with Light Snow 29 -1.7 27 -2.8 92 92 SW 9 15 29.97 1015 3 5 N/A
5:40 pm 17:40 Cloudy with Light Snow 29 -1.7 27 -2.8 92 92 WSW 8 13 29.97 1015 3 5 N/A
5:53 pm 17:53 Cloudy 30 -1.1 27 -2.8 88 88 SW 9 15 29.93 1014 7 11 N/A
6:31 pm 18:31 Cloudy 30 -1.1 26 -3.3 85 85 SW 9 15 29.97 1015 10 16 N/A
6:53 pm 18:53 Cloudy 30 -1.1 25 -3.9 82 82 W 12 19 29.96 1015 10 16 N/A
7:53 pm 19:53 Cloudy with Light Snow 30 -1.1 24 -4.4 79 79 WSW 9 15 29.99 1016 6 10 N/A
8:53 pm 20:53 Cloudy 30 -1.1 23 -5 75 75 W 17 28 30.01 1016 10 16 N/A
9:53 pm 21:53 Cloudy 31 -0.6 23 -5 72 72 W 16 26 30.04 1017 10 16 N/A
10:53 pm 22:53 Cloudy 31 -0.6 23 -5 72 72 WNW 14 22 30.07 1018 10 16 N/A
11:53 pm 23:53 Cloudy 31 -0.6 22 -5.6 69 69 W 15 24 30.09 1019 10 16 N/A

Powered by AerisWeather